Location: Balaclava NSW 2575, Australia
(34.4510°S, 150.4953°E)
Time: 22:38:50
(UTC+10:00)

LightSail 2 - Visible Passes

Search period start: 03 August 2020 00:00
Search period end: 13 August 2020 00:00
Orbit: 698 x 714 km, 24.0° (Epoch: 02 August)

Date Brightness Start Highest point End Pass type
(mag) Time Alt. Az. Time Alt. Az. Time Alt. Az.
03 Aug 7.6 06:06:57 10° NNW 06:09:38 14° NNE 06:12:19 10° NE visible
04 Aug 7.7 05:08:09 10° N 05:09:33 11° NNE 05:10:57 10° NE visible
05 Aug 7.4 05:50:35 10° NNW 05:54:06 19° NNE 05:57:35 10° NE visible
06 Aug 7.4 04:51:37 12° NNW 04:53:58 15° NNE 04:56:56 10° NE visible
07 Aug 7.8 03:55:13 11° NE 03:55:13 11° NE 03:55:51 10° NE visible
07 Aug 7.0 05:34:37 10° NW 05:38:32 22° N 05:42:27 10° ENE visible
08 Aug 7.0 04:37:33 19° N 04:38:22 20° NNE 04:42:01 10° ENE visible
09 Aug 7.9 03:41:01 11° NE 03:41:01 11° NE 03:41:25 10° NE visible
09 Aug 6.8 05:19:50 14° NW 05:22:57 25° N 05:27:04 10° ENE visible
10 Aug 6.9 04:23:15 23° NNE 04:23:15 23° NNE 04:26:46 10° ENE visible
10 Aug 6.8 06:03:27 10° WNW 06:07:34 24° N 06:11:37 10° NE visible
11 Aug 6.7 05:05:25 20° NW 05:07:20 25° N 05:11:30 10° NE visible
12 Aug 7.1 04:08:46 21° NNE 04:08:46 21° NNE 04:11:17 10° ENE visible
12 Aug 6.9 05:48:02 10° WNW 05:51:54 21° N 05:55:45 10° NE visible
